OK1CMJ-5 Weather Reports


time (UTC)temp
F
wind
direction
speed
knots
gust
knots
rain 1hr
in
rain 24hr
in
rain mn
in
humidity
%
barometer
mb
20260505010733 51 294 0.0 0.9 0.00 0.04 0.00 96 1011.6
20260505005834 51 1 0.0 0.9 0.00 0.04 0.00 95 1011.8
20260505004934 51 1 0.0 1.7 0.00 0.04 0.00 94 1012.0
20260505004033 51 1 0.0 1.7 0.00 0.04 0.00 93 1012.1
20260505003134 51 1 0.0 1.7 0.00 0.04 0.00 92 1012.3
20260505002234 51 1 0.0 0.9 0.00 0.04 0.00 92 1012.3
20260505001334 51 1 0.0 0.9 0.00 0.04 0.00 92 1012.3
20260504235534 51 181 0.0 1.7 0.00 0.04 0.00 89 1012.6
20260504234633 51 1 0.0 1.7 0.00 0.04 0.00 88 1012.7
20260504232833 52 266 0.0 1.7 0.00 0.04 0.00 82 1012.7
20260504231933 52 1 0.0 1.7 0.00 0.04 0.00 82 1012.8
20260504231033 52 318 0.0 1.7 0.00 0.04 0.00 81 1012.8
20260504230133 52 314 0.0 1.7 0.00 0.04 0.00 79 1012.8
20260504224333 52 1 0.0 1.7 0.00 0.04 0.00 73 1013.1
20260504223433 52 1 0.0 1.7 0.00 0.04 0.00 70 1013.2
20260504222534 53 1 0.0 0.9 0.00 0.04 0.00 66 1013.2
20260504221633 53 1 0.0 1.7 0.00 0.04 0.00 65 1013.4
20260504220733 54 345 0.0 1.7 0.04 0.04 0.00 61 1013.4
20260504214033 56 314 0.9 1.7 0.04 0.04 0.04 50 1013.7
20260504212233 59 278 0.0 3.5 0.04 0.04 0.04 42 1014.0
20260504211334 60 346 1.7 3.5 0.02 0.02 0.02 38 1014.2
20260504210434 62 346 0.9 2.6 0.00 0.00 0.00 32 1014.2
20260504205533 61 331 0.9 4.3 0.00 0.00 0.00 32 1014.1
20260504204633 60 317 0.0 1.7 0.00 0.00 0.00 34 1014.1
20260504203733 60 265 0.0 1.7 0.00 0.00 0.00 36 1013.9
20260504202833 59 181 0.0 1.7 0.00 0.00 0.00 36 1013.9
20260504201934 59 181 0.0 1.7 0.00 0.00 0.00 35 1013.9
20260504200133 59 181 0.0 1.7 0.00 0.00 0.00 36 1013.8
20260504195233 59 181 0.0 0.9 0.00 0.00 0.00 35 1013.8
20260504194334 59 181 0.0 1.7 0.00 0.00 0.00 35 1013.9
20260504193433 60 181 0.0 1.7 0.00 0.00 0.00 35 1013.8
20260504192533 60 181 0.0 1.7 0.00 0.00 0.00 34 1014.0
20260504191633 60 181 0.0 1.7 0.00 0.00 0.00 34 1014.0
20260504190733 60 181 0.0 1.7 0.00 0.00 0.00 33 1013.9
20260504185833 60 181 0.0 1.7 0.00 0.00 0.00 32 1013.8
20260504184933 60 181 0.0 1.7 0.00 0.00 0.00 31 1013.7
20260504184034 61 181 0.0 1.7 0.00 0.00 0.00 28 1013.5
20260504183133 62 181 0.0 1.7 0.00 0.00 0.00 27 1013.5
20260504182233 63 181 0.0 0.9 0.00 0.00 0.00 24 1013.5
20260504181333 64 0 0.0 0.0 0.00 0.00 0.00 21 1013.3
20260504180433 66 0 0.0 0.0 0.00 0.00 0.00 16 1013.3
20260504175533 67 79 0.0 1.7 0.00 0.00 0.00 16 1013.2
20260504174633 67 17 0.0 1.7 0.00 0.00 0.00 16 1013.2
20260504173733 68 1 0.9 3.5 0.00 0.00 0.00 15 1013.2
20260504172833 69 337 1.7 3.5 0.00 0.00 0.00 13 1013.3
20260504170133 73 1 0.0 0.9 0.00 0.00 0.00 10 1013.4
20260504150433 82 355 0.9 4.3 0.00 0.00 0.00 10 1013.9
20260504141033 79 8 0.9 2.6 0.00 0.00 0.00 10 1014.3
20260504140133 78 339 0.9 2.6 0.00 0.00 0.00 10 1014.2
20260504130733 80 127 1.7 6.1 0.00 0.00 0.00 10 1014.6
20260504110133 76 340 1.7 7.0 0.00 0.00 0.00 10 1015.4
20260504081933 75 128 0.0 2.6 0.00 0.00 0.00 10 1016.3
20260504081033 73 332 1.7 3.5 0.00 0.00 0.00 10 1016.1
20260504080133 72 314 0.9 1.7 0.00 0.00 0.00 10 1015.9
20260504050133 50 318 0.9 2.6 0.00 0.00 0.00 60 1015.7
20260504044333 50 314 0.0 0.9 0.00 0.00 0.00 62 1015.6
20260504042533 47 314 0.0 0.9 0.00 0.00 0.00 64 1015.6
20260504040733 44 0 0.0 0.0 0.00 0.00 0.00 61 1015.5
20260504035833 44 0 0.0 0.0 0.00 0.00 0.00 59 1015.3
20260504034933 44 0 0.0 0.0 0.00 0.00 0.00 58 1015.4
20260504034036 44 0 0.0 0.0 0.00 0.00 0.00 57 1015.3
20260504032233 44 325 0.0 1.7 0.00 0.00 0.00 56 1015.3
20260504031333 44 312 0.0 1.7 0.00 0.00 0.00 56 1015.3
20260504025533 44 1 0.0 0.9 0.00 0.00 0.00 54 1015.2
20260504023733 45 1 0.0 1.7 0.00 0.00 0.00 53 1015.3
20260504022833 46 1 0.0 1.7 0.00 0.00 0.00 53 1015.3
20260504021933 46 324 0.0 1.7 0.00 0.00 0.00 53 1015.2
20260504021033 45 301 0.0 1.7 0.00 0.00 0.00 52 1015.2
20260504020133 45 314 0.0 0.9 0.00 0.00 0.00 50 1015.2
20260504013433 46 314 0.0 1.7 0.00 0.00 0.00 47 1015.3
20260504012533 46 314 0.0 0.9 0.00 0.00 0.00 47 1015.2
20260504011633 47 314 0.0 0.9 0.00 0.00 0.00 46 1015.2